CamptonHillsWeather.com

Find the Weather for any City, State  
or Zipcode, or Country:

Campton Hills, IL Weather
Local Radar

Local Radar

Graphs, Details
Graphs and Gauges
Detailed Weather
Detailed Reports
Ajax Version (old)
Central Kane Co Summary
Davis Current Weather Graphs
Davis 24 Hour Weather History

CW3778 Data

Weather Underground
Maps
Temperature
Heat Index
Windchill
Humidity
Radar
Dew Point
Wind
Visibility
Visible Satellite
Satellite
Fronts
Snow Depth
Jet Stream
Flight Rules
Forecast Maps
Temperature Forecast
Maximum Temperature Forecast
Minimum Temperature Forecast
Dewpoint Forecast
Prevalent Weather
12Hr Probability of Precip.
Sky Cover
Health Maps
UV Forecast
Air Quality
Peak Air Quality Index
Weather Station
Davis Instruments Vantage Pro
Current Conditions [Select Refresh to Update]

Updated: 6:17pm on 1/25/15

(location)
Currently:
24.3F

Clear
Overcast

High: 32.8 F< 
(4:25am
Low: 24.3 F 
(5:50pm)
Wind: E 10 mph
Gentle Breeze
Gust: 12 mph
Today's High Wind: 19 mph (4:15pm)
Humidity: 78%
Pressure: 30.01 in  (Rising
Pressure Rate: 0.029 in/hr
Dew Point: 18.4F
Wind Chill: 14.2 F
Heat Index (feels like): 28.3 F
Comfort Level: Uncomfortably Cold
Temperature Rate:  -0.62F/hr
 
5 Day Forecast
 
Sun Mon Tue Wed Thu
Clear Clear Clear Clear Clear
Snow unknown Partly Cloudy Partly Cloudy Partly Cloudy
37 27 34 39 41
21 23 19 34 27

Records and Normals
 
Temperature Forecast Normal Record
High 37 0 0
(0)
Low 21 0 0
(0)
 
Links
 
 
Weather Advisories
No Advisories
Full Advisory Text...
Weather Map

Web Cam

Almanac
 
Sunrise:  
7:11am
Moonrise: 
10:13am

Moon Phase:
36%

Sunset: 
4:58pm
Moonset:  
11:31pm
 Star Chart...
Rainfall Totals
Hourly Rain 0.00 in
Daily Rain: 0.00 in
Monthly Rain: 0.74 in
Yearly Rain: 0.74 in
Normal Rain, month to date: 0.00 in
Normal Rain, year to date: 0.00 in
Link to Village of Campton Hills Map

Link to Counties of Illinois Map

Local Weather Exchange Network
Station ID City 
(Click for Map Location)
Neighborhood 
(Click for History)
Last Update (Date & Time) Temperature
 ()
Dew
Point ()
Humidity 
(%)
Wind 
(mph)
from the Wind Gust 
(mph) 
Pressure(in) Hourly
Rain(in)
KILSTCHA10 St. Charles Hunt Club 01/25 18:12:03 25.0 12.0 56 4 ENE 7 29.48 0.00
KILWAYNE4 Wayne Hampton Course 01/25 18:11:53 26.1 20.0 78 0 North 0 30.05 0.00
KILSAINT7 Saint Charles Silver Glen 01/25 18:12:11 24.8 12.0 57 5 NNE 7 29.87 0.00
KILCAMPT3 Campton Hills Campton Hills 01/25 18:12:05 24.7 16.0 70 0 North 13 30.02 0.00
KILSAINT6 Saint Charles 3 Lakes 01/25 18:12:12 23.9 17.0 74 4 NW 0 29.72 0.00
KILSAINT9 Saint Charles Fox Chase 01/25 18:11:42 25.3 12.0 57 3 NE 5 29.93 0.00
KILGENEV6 Geneva Dover Ridge 01/25 18:12:00 25.2 19.0 77 6 NE 6 29.97 0.00
KILSTCHA8 St. Charles Ronzheimer Ave. & S. Tyler Rd. 01/25 18:12:10 24.8 19.0 79 6 NE 16 29.97 0.00
KILGENEV3 Geneva Mill Creek (NE) 01/25 18:12:04 25.5 20.0 78 4 North 18 30.05 0.00
KILSTCHA1 St Charles CamptonHillsWeather.com Central Kane County 01/25 18:12:07 24.3 18.0 78 4 NE 12 30.01 0.00
KILGENEV7 Geneva Eldorado Drive 01/25 18:11:55 25.5 23.0 89 0 North 0 29.87 0.00
KILGENEV8 Geneva Alexander Drive 01/25 18:12:09 30.0 21.0 70 0 North 0 29.50 0.00
KILSOUTH5 South Elgin Concord Park 01/25 18:00:55 24.4 17.0 74 8 NE 0 29.71 0.00
KILGENEV2 Geneva Mill Creek 01/25 18:07:45 24.5 18.0 77 7 ENE 15 29.94 0.00
MC0571 Batavia APRSWXNET Batavia IL US 01/25 17:17:00 27.0 19.0 71 6 NNE 6 29.97 0.00
KILBATAV1 Batavia Tri-Cities on the Fox River 01/25 18:10:58 25.8 18.0 71 7 NNE 7 29.99 0.00
KILELGIN16 Elgin Providence Subdivision 01/25 18:04:42 24.1 17.0 74 6 NNW 0 29.72 0.00
KILELBUR10 Elburn Prairie Valley North 01/25 18:12:09 23.7 18.0 77 9 East 13 30.04 0.00
KILELBUR5 Elburn Prairie Highlands 01/25 18:10:16 25.4 20.0 79 5 NNE 14 30.00 0.00
MD7322 Elburn APRSWXNET Elburn IL US 01/25 17:29:00 25.0 19.0 79 5 NE 11 29.97 0.00
KILBATAV3 Batavia West Batavia 01/25 18:07:18 25.3 19.0 78 10 NE 0 29.97 0.00
KILELBUR6 Elburn Columbine Square 01/25 18:10:35 23.9 18.0 78 6 NNE 21 29.95 0.00
KILBATAV5 Batavia Fermi National Accelerator Laboratory 01/25 18:10:16 25.4 20.0 80 5 NNW 11 29.94 0.00
KILELBUR8 Elburn Columbine 01/25 18:08:49 24.2 18.0 78 8 NNE 16 29.97 0.00
KILWESTC5 West Chicago THEBROWNHOUSE.ORG 01/25 18:12:05 22.7 10.0 58 0 NNE 0 29.94 0.00
KILWESTC8 West Chicago Ingalton Hills Estates 01/25 18:12:09 24.0 19.0 81 6 WNW 6 30.15 0.00
KILNORTH11 North Aurora Waterford Oaks 01/25 18:12:08 25.7 20.0 79 14 NNE 19 29.98 0.00
MUP188 Elburn MesoWest ELBRN1 IL US UPR 01/25 16:00:00 25.0 0.0 0 0 North 0 0.00 0.00
KILELGIN14 Elgin Elgin, IL 01/25 18:12:10 24.1 17.0 75 3 North 5 29.90 0.00
KILCAROL5 Carol Stream Stonehenge Court 01/25 18:10:04 25.3 0.0 32 8 NE 8 29.96 0.00
MUP431 West Chicago MesoWest WINFL1 IL US UPR 01/25 16:55:00 25.0 0.0 0 0 North 0 0.00 0.00
KILELGIN11 Elgin Trout Park 01/25 18:12:11 22.5 10.0 57 8 East 15 29.98 0.00
KILBARTL4 Bartlett Bartlett, IL 01/25 18:11:55 24.8 13.0 60 5 ENE 7 29.96 0.00
KILWARRE6 Warrenville Summer Lakes 01/25 18:11:20 25.6 20.0 78 2 ENE 17 29.98 0.00
KILWINFI3 Winfield Fredericksburg Farm 01/25 18:12:04 25.0 19.0 78 1 SW 9 29.90 0.00
KDPA Chicago DuPage Official Station 01/25 17:52:00 25.0 17.0 72 16 NNE --- 29.96 ---
KARR Aurora Official Station 01/25 17:52:00 26.0 17.0 69 20 NNE --- 29.97 ---
KDKB DeKalb Official Station 01/25 17:55:00 23.0 16.0 76 21 NNE --- 29.96 ---
KORD Chicago Official Station 01/25 17:51:00 26.0 17.0 69 16 NNE --- 29.96 ---
Full Advisory Text
No Warnings

Ambient Weather and Weather Underground
 Never base important decisions on this or any weather information obtained from the Internet
Updated Automatically by Ambient Weather's Virtual Weather Station  V13.01